Time,TemperatureF,DewpointF,PressureIn,WindDirection,WindDirectionDegrees,WindSpeedMPH,WindSpeedGustMPH,Humidity,HourlyPrecipIn,Conditions,Clouds,dailyrainin,SoftwareType,DateUTC
2013-03-12 00:00:00,42.4,40.6,29.76,South,171,0.0,4.0,93,0.00,,,0.48,meteohub,2013-03-12 04:00:00,
2013-03-12 00:01:00,42.4,40.6,29.77,South,171,0.0,4.0,93,0.00,,,0.48,meteohub,2013-03-12 04:01:00,
2013-03-12 00:02:00,42.3,40.5,29.77,South,171,0.0,4.0,93,0.00,,,0.48,meteohub,2013-03-12 04:02:00,
2013-03-12 00:04:00,42.3,40.5,29.77,South,171,0.0,4.0,93,0.00,,,0.48,meteohub,2013-03-12 04:04:00,
2013-03-12 00:09:00,42.3,40.5,29.77,SSW,213,0.0,4.0,93,0.00,,,0.48,meteohub,2013-03-12 04:09:00,
2013-03-12 00:14:00,42.1,40.3,29.76,SW,218,0.0,5.0,93,0.00,,,0.48,meteohub,2013-03-12 04:14:00,
2013-03-12 00:19:00,42.1,39.9,29.77,South,174,0.0,5.0,92,0.00,,,0.48,meteohub,2013-03-12 04:19:00,
2013-03-12 00:25:00,41.9,39.7,29.77,South,174,0.0,4.0,92,0.00,,,0.48,meteohub,2013-03-12 04:25:00,
2013-03-12 00:30:00,41.7,39.2,29.77,South,174,0.0,4.0,91,0.00,,,0.48,meteohub,2013-03-12 04:30:00,
2013-03-12 00:35:00,41.7,39.0,29.77,South,174,0.0,4.0,90,0.00,,,0.48,meteohub,2013-03-12 04:35:00,
2013-03-12 00:40:00,41.5,38.8,29.78,South,174,0.0,1.0,90,0.00,,,0.48,meteohub,2013-03-12 04:40:00,
2013-03-12 00:45:00,41.4,38.7,29.77,South,174,0.0,1.0,90,0.00,,,0.48,meteohub,2013-03-12 04:45:00,
2013-03-12 00:50:00,41.2,38.5,29.78,South,174,0.0,0.0,90,0.00,,,0.48,meteohub,2013-03-12 04:50:00,
2013-03-12 00:55:00,41.0,38.3,29.78,South,174,0.0,2.0,90,0.00,,,0.48,meteohub,2013-03-12 04:55:00,
2013-03-12 01:00:00,40.8,38.1,29.78,South,174,0.0,4.0,90,0.00,,,0.48,meteohub,2013-03-12 05:00:00,
2013-03-12 01:06:00,40.8,38.5,29.79,South,174,0.0,4.0,91,0.00,,,0.48,meteohub,2013-03-12 05:06:00,
2013-03-12 01:11:00,40.8,38.5,29.78,NNE,21,2.0,4.0,91,0.00,,,0.48,meteohub,2013-03-12 05:11:00,
2013-03-12 01:17:00,40.8,38.5,29.79,WNW,290,4.0,5.0,91,0.00,,,0.48,meteohub,2013-03-12 05:17:00,
2013-03-12 01:22:00,40.6,37.9,29.80,NNW,333,2.0,5.0,90,0.00,,,0.48,meteohub,2013-03-12 05:22:00,
2013-03-12 01:27:00,40.5,37.4,29.80,NNE,12,3.0,5.0,89,0.00,,,0.48,meteohub,2013-03-12 05:27:00,
2013-03-12 01:32:00,40.3,37.0,29.80,West,274,1.0,5.0,88,0.00,,,0.48,meteohub,2013-03-12 05:32:00,
2013-03-12 01:37:00,39.9,36.7,29.80,WNW,284,0.0,5.0,88,0.00,,,0.48,meteohub,2013-03-12 05:37:00,
2013-03-12 01:42:00,39.7,36.1,29.80,NNW,329,0.0,4.0,87,0.00,,,0.48,meteohub,2013-03-12 05:42:00,
2013-03-12 01:47:00,39.4,36.1,29.81,NNW,331,0.0,4.0,88,0.00,,,0.48,meteohub,2013-03-12 05:47:00,
2013-03-12 01:52:00,39.2,36.0,29.81,NNW,334,0.0,4.0,88,0.00,,,0.48,meteohub,2013-03-12 05:52:00,
2013-03-12 01:57:00,39.0,35.8,29.81,SSW,200,4.0,4.0,88,0.00,,,0.48,meteohub,2013-03-12 05:57:00,
2013-03-12 02:02:00,38.8,35.6,29.81,West,267,0.0,4.0,88,0.00,,,0.48,meteohub,2013-03-12 06:02:00,
2013-03-12 02:07:00,38.8,35.6,29.81,WSW,243,0.0,4.0,88,0.00,,,0.48,meteohub,2013-03-12 06:07:00,
2013-03-12 02:12:00,38.7,35.4,29.81,WNW,296,1.0,4.0,88,0.00,,,0.48,meteohub,2013-03-12 06:12:00,
2013-03-12 02:17:00,38.7,35.1,29.81,West,273,2.0,7.0,87,0.00,,,0.48,meteohub,2013-03-12 06:17:00,
2013-03-12 02:22:00,38.5,34.9,29.81,West,271,0.0,7.0,87,0.00,,,0.48,meteohub,2013-03-12 06:22:00,
2013-03-12 02:28:00,38.5,34.9,29.82,West,268,1.0,6.0,87,0.00,,,0.48,meteohub,2013-03-12 06:28:00,
2013-03-12 02:33:00,38.5,34.9,29.82,West,268,4.0,5.0,87,0.00,,,0.48,meteohub,2013-03-12 06:33:00,
2013-03-12 02:38:00,38.3,34.7,29.82,SW,230,0.0,5.0,87,0.00,,,0.48,meteohub,2013-03-12 06:38:00,
2013-03-12 02:43:00,38.3,34.7,29.82,West,263,0.0,5.0,87,0.00,,,0.48,meteohub,2013-03-12 06:43:00,
2013-03-12 02:48:00,38.1,34.3,29.82,WNW,290,1.0,4.0,86,0.00,,,0.48,meteohub,2013-03-12 06:48:00,
2013-03-12 02:53:00,38.1,34.3,29.82,WNW,290,0.0,4.0,86,0.00,,,0.48,meteohub,2013-03-12 06:53:00,
2013-03-12 02:58:00,38.1,34.3,29.82,East,87,0.0,4.0,86,0.00,,,0.48,meteohub,2013-03-12 06:58:00,
2013-03-12 03:03:00,38.1,34.0,29.83,WNW,292,0.0,4.0,85,0.00,,,0.48,meteohub,2013-03-12 07:03:00,
2013-03-12 03:09:00,38.1,34.3,29.83,WNW,292,0.0,4.0,86,0.00,,,0.48,meteohub,2013-03-12 07:09:00,
2013-03-12 03:14:00,37.9,33.8,29.83,WNW,292,0.0,4.0,85,0.00,,,0.48,meteohub,2013-03-12 07:14:00,
2013-03-12 03:19:00,37.9,33.6,29.83,WNW,292,0.0,2.0,84,0.00,,,0.48,meteohub,2013-03-12 07:19:00,
2013-03-12 03:25:00,37.8,33.4,29.83,WNW,292,0.0,1.0,84,0.00,,,0.48,meteohub,2013-03-12 07:25:00,
2013-03-12 03:30:00,37.8,33.4,29.83,WNW,289,0.0,2.0,84,0.00,,,0.48,meteohub,2013-03-12 07:30:00,
2013-03-12 03:35:00,37.8,33.6,29.83,ENE,65,0.0,2.0,85,0.00,,,0.48,meteohub,2013-03-12 07:35:00,
2013-03-12 03:41:00,37.8,34.0,29.83,ENE,65,0.0,3.0,86,0.00,,,0.48,meteohub,2013-03-12 07:41:00,
2013-03-12 03:46:00,37.8,33.6,29.83,South,189,0.0,3.0,85,0.00,,,0.48,meteohub,2013-03-12 07:46:00,
2013-03-12 03:51:00,37.8,33.4,29.83,South,189,1.0,4.0,84,0.00,,,0.48,meteohub,2013-03-12 07:51:00,
2013-03-12 03:56:00,37.9,33.6,29.83,South,189,0.0,4.0,84,0.00,,,0.48,meteohub,2013-03-12 07:56:00,
2013-03-12 04:01:00,37.9,33.3,29.83,South,188,2.0,3.0,83,0.00,,,0.48,meteohub,2013-03-12 08:01:00,
2013-03-12 04:07:00,38.1,32.7,29.83,WNW,282,1.0,5.0,81,0.00,,,0.48,meteohub,2013-03-12 08:07:00,
2013-03-12 04:12:00,38.3,32.7,29.83,WNW,295,2.0,9.0,80,0.00,,,0.48,meteohub,2013-03-12 08:12:00,
2013-03-12 04:17:00,38.3,32.0,29.83,SSE,161,2.0,9.0,78,0.00,,,0.48,meteohub,2013-03-12 08:17:00,
2013-03-12 04:23:00,38.5,31.8,29.83,WNW,283,3.0,9.0,77,0.00,,,0.48,meteohub,2013-03-12 08:23:00,
2013-03-12 04:28:00,38.5,31.8,29.83,WNW,291,1.0,6.0,77,0.00,,,0.48,meteohub,2013-03-12 08:28:00,
2013-03-12 04:33:00,38.3,32.0,29.83,West,263,2.0,6.0,78,0.00,,,0.48,meteohub,2013-03-12 08:33:00,
2013-03-12 04:38:00,38.3,32.0,29.83,SSW,197,0.0,7.0,78,0.00,,,0.48,meteohub,2013-03-12 08:38:00,
2013-03-12 04:43:00,38.1,32.2,29.83,WSW,257,1.0,7.0,79,0.00,,,0.48,meteohub,2013-03-12 08:43:00,
2013-03-12 04:49:00,38.1,31.8,29.83,SW,234,0.0,5.0,78,0.00,,,0.48,meteohub,2013-03-12 08:49:00,
2013-03-12 04:54:00,38.1,32.2,29.83,WSW,245,1.0,5.0,79,0.00,,,0.48,meteohub,2013-03-12 08:54:00,
2013-03-12 04:59:00,37.9,32.4,29.83,WNW,290,0.0,5.0,80,0.00,,,0.48,meteohub,2013-03-12 08:59:00,
2013-03-12 05:04:00,37.9,32.4,29.84,SW,228,0.0,5.0,80,0.00,,,0.48,meteohub,2013-03-12 09:04:00,
2013-03-12 05:10:00,37.8,31.8,29.83,SSW,209,0.0,5.0,79,0.00,,,0.48,meteohub,2013-03-12 09:10:00,
2013-03-12 05:15:00,37.8,31.8,29.84,NW,323,2.0,6.0,79,0.00,,,0.48,meteohub,2013-03-12 09:15:00,
2013-03-12 05:20:00,37.8,32.2,29.84,NW,323,0.0,6.0,80,0.00,,,0.48,meteohub,2013-03-12 09:20:00,
2013-03-12 05:25:00,37.8,32.2,29.84,NW,326,0.0,6.0,80,0.00,,,0.48,meteohub,2013-03-12 09:25:00,
2013-03-12 05:30:00,37.8,32.5,29.84,NW,326,0.0,6.0,81,0.00,,,0.48,meteohub,2013-03-12 09:30:00,
2013-03-12 05:36:00,37.6,32.5,29.85,NW,326,0.0,2.0,82,0.00,,,0.48,meteohub,2013-03-12 09:36:00,
2013-03-12 05:41:00,37.6,32.5,29.85,SSW,198,0.0,2.0,82,0.00,,,0.48,meteohub,2013-03-12 09:41:00,
2013-03-12 05:46:00,37.6,32.5,29.85,SSW,198,1.0,3.0,82,0.00,,,0.48,meteohub,2013-03-12 09:46:00,
2013-03-12 05:52:00,37.4,32.4,29.85,SSW,198,0.0,3.0,82,0.00,,,0.48,meteohub,2013-03-12 09:52:00,
2013-03-12 05:57:00,37.4,32.4,29.85,SSW,198,0.0,3.0,82,0.00,,,0.48,meteohub,2013-03-12 09:57:00,
2013-03-12 06:02:00,37.2,32.5,29.86,SSW,198,0.0,3.0,83,0.00,,,0.48,meteohub,2013-03-12 10:02:00,
2013-03-12 06:07:00,37.2,32.5,29.86,SW,217,0.0,0.0,83,0.00,,,0.48,meteohub,2013-03-12 10:07:00,
2013-03-12 06:12:00,37.2,32.9,29.86,SW,215,0.0,4.0,84,0.00,,,0.48,meteohub,2013-03-12 10:12:00,
2013-03-12 06:17:00,37.0,32.4,29.86,SW,224,1.0,4.0,83,0.00,,,0.48,meteohub,2013-03-12 10:17:00,
2013-03-12 06:22:00,37.0,31.8,29.86,NNW,331,1.0,5.0,81,0.00,,,0.48,meteohub,2013-03-12 10:22:00,
2013-03-12 06:27:00,37.0,31.8,29.86,NW,309,3.0,5.0,81,0.00,,,0.48,meteohub,2013-03-12 10:27:00,
2013-03-12 06:33:00,37.0,31.8,29.86,West,265,0.0,5.0,81,0.00,,,0.48,meteohub,2013-03-12 10:33:00,
2013-03-12 06:38:00,37.0,31.8,29.86,SW,231,1.0,5.0,81,0.00,,,0.48,meteohub,2013-03-12 10:38:00,
2013-03-12 06:43:00,37.0,31.8,29.86,SW,219,4.0,5.0,81,0.00,,,0.48,meteohub,2013-03-12 10:43:00,
2013-03-12 06:48:00,37.0,31.5,29.86,SSW,213,6.0,7.0,80,0.00,,,0.48,meteohub,2013-03-12 10:48:00,
2013-03-12 06:53:00,37.0,31.5,29.86,SW,215,0.0,7.0,80,0.00,,,0.48,meteohub,2013-03-12 10:53:00,
2013-03-12 06:59:00,36.9,31.6,29.86,SW,215,0.0,7.0,81,0.00,,,0.48,meteohub,2013-03-12 10:59:00,
2013-03-12 07:04:00,36.9,31.6,29.87,SSW,208,0.0,7.0,81,0.00,,,0.48,meteohub,2013-03-12 11:04:00,
2013-03-12 07:09:00,36.9,31.6,29.87,West,266,1.0,4.0,81,0.00,,,0.48,meteohub,2013-03-12 11:09:00,
2013-03-12 07:15:00,36.9,31.3,29.86,South,182,4.0,7.0,80,0.00,,,0.48,meteohub,2013-03-12 11:15:00,
2013-03-12 07:20:00,36.9,31.6,29.87,SSW,201,0.0,7.0,81,0.00,,,0.48,meteohub,2013-03-12 11:20:00,
2013-03-12 07:26:00,36.7,31.5,29.87,SSW,205,0.0,8.0,81,0.00,,,0.48,meteohub,2013-03-12 11:26:00,
2013-03-12 07:31:00,36.9,31.8,29.87,WSW,249,5.0,8.0,82,0.00,,,0.48,meteohub,2013-03-12 11:31:00,
2013-03-12 07:36:00,36.7,31.6,29.87,South,173,0.0,8.0,82,0.00,,,0.48,meteohub,2013-03-12 11:36:00,
2013-03-12 07:41:00,36.7,31.6,29.87,SSW,197,0.0,8.0,82,0.00,,,0.48,meteohub,2013-03-12 11:41:00,
2013-03-12 07:46:00,36.7,31.6,29.87,SSW,197,0.0,5.0,82,0.00,,,0.48,meteohub,2013-03-12 11:46:00,
2013-03-12 07:52:00,36.7,31.6,29.87,SW,232,8.0,8.0,82,0.00,,,0.48,meteohub,2013-03-12 11:52:00,
2013-03-12 07:57:00,36.7,31.1,29.88,NNW,340,3.0,11.0,80,0.00,,,0.48,meteohub,2013-03-12 11:57:00,
2013-03-12 08:02:00,36.7,31.1,29.88,SSW,209,2.0,11.0,80,0.00,,,0.48,meteohub,2013-03-12 12:02:00,
2013-03-12 08:07:00,36.7,31.5,29.88,SSW,194,0.0,11.0,81,0.00,,,0.48,meteohub,2013-03-12 12:07:00,
2013-03-12 08:12:00,36.7,31.1,29.88,SSW,202,2.0,6.0,80,0.00,,,0.48,meteohub,2013-03-12 12:12:00,
2013-03-12 08:17:00,36.7,31.5,29.88,South,175,1.0,6.0,81,0.00,,,0.48,meteohub,2013-03-12 12:17:00,
2013-03-12 08:22:00,36.7,31.5,29.88,WNW,289,3.0,6.0,81,0.00,,,0.48,meteohub,2013-03-12 12:22:00,
2013-03-12 08:27:00,36.7,31.1,29.88,WSW,252,1.0,5.0,80,0.00,,,0.48,meteohub,2013-03-12 12:27:00,
2013-03-12 08:32:00,36.7,31.1,29.89,SW,231,0.0,8.0,80,0.00,,,0.48,meteohub,2013-03-12 12:32:00,
2013-03-12 08:37:00,36.7,31.1,29.89,South,190,0.0,8.0,80,0.00,,,0.48,meteohub,2013-03-12 12:37:00,
2013-03-12 08:42:00,36.7,31.1,29.89,SSW,200,1.0,7.0,80,0.00,,,0.48,meteohub,2013-03-12 12:42:00,
2013-03-12 08:47:00,36.7,31.1,29.89,WNW,290,0.0,5.0,80,0.00,,,0.48,meteohub,2013-03-12 12:47:00,
2013-03-12 08:52:00,36.7,31.5,29.89,WSW,248,0.0,5.0,81,0.00,,,0.48,meteohub,2013-03-12 12:52:00,
2013-03-12 08:57:00,36.7,31.1,29.89,SW,219,0.0,5.0,80,0.00,,,0.48,meteohub,2013-03-12 12:57:00,
2013-03-12 09:02:00,36.7,31.5,29.89,SW,219,0.0,5.0,81,0.00,,,0.48,meteohub,2013-03-12 13:02:00,
2013-03-12 09:08:00,36.7,31.1,29.90,SSW,208,0.0,6.0,80,0.00,,,0.48,meteohub,2013-03-12 13:08:00,
2013-03-12 09:12:00,36.7,31.1,29.89,SSW,207,0.0,6.0,80,0.00,,,0.48,meteohub,2013-03-12 13:12:00,
2013-03-12 09:18:00,36.7,31.5,29.90,West,271,0.0,6.0,81,0.00,,,0.48,meteohub,2013-03-12 13:18:00,
2013-03-12 09:23:00,36.7,31.5,29.90,SW,229,0.0,9.0,81,0.00,,,0.48,meteohub,2013-03-12 13:23:00,
2013-03-12 09:28:00,36.7,30.7,29.90,SW,217,0.0,9.0,79,0.00,,,0.48,meteohub,2013-03-12 13:28:00,
2013-03-12 09:33:00,36.9,31.6,29.90,SW,217,0.0,4.0,81,0.00,,,0.48,meteohub,2013-03-12 13:33:00,
2013-03-12 09:38:00,36.9,31.3,29.90,WSW,252,2.0,7.0,80,0.00,,,0.48,meteohub,2013-03-12 13:38:00,
2013-03-12 09:43:00,36.9,31.6,29.90,SSW,192,6.0,7.0,81,0.00,,,0.48,meteohub,2013-03-12 13:43:00,
2013-03-12 09:49:00,36.9,31.3,29.90,NE,42,2.0,7.0,80,0.00,,,0.48,meteohub,2013-03-12 13:49:00,
2013-03-12 09:54:00,36.9,31.8,29.90,WSW,250,2.0,7.0,82,0.00,,,0.48,meteohub,2013-03-12 13:54:00,
2013-03-12 09:59:00,36.7,31.6,29.90,WSW,252,4.0,7.0,82,0.00,,,0.48,meteohub,2013-03-12 13:59:00,
2013-03-12 10:04:00,36.7,31.6,29.90,SSW,206,0.0,8.0,82,0.00,,,0.48,meteohub,2013-03-12 14:04:00,
2013-03-12 10:09:00,36.7,32.0,29.91,SSW,206,0.0,11.0,83,0.00,,,0.48,meteohub,2013-03-12 14:09:00,
2013-03-12 10:14:00,36.7,32.0,29.91,SSW,201,1.0,11.0,83,0.00,,,0.48,meteohub,2013-03-12 14:14:00,
2013-03-12 10:20:00,36.7,32.0,29.91,WSW,254,2.0,11.0,83,0.00,,,0.48,meteohub,2013-03-12 14:20:00,
2013-03-12 10:25:00,36.7,32.0,29.91,ESE,107,1.0,5.0,83,0.00,,,0.48,meteohub,2013-03-12 14:25:00,
2013-03-12 10:30:00,36.5,31.8,29.91,West,274,2.0,5.0,83,0.00,,,0.48,meteohub,2013-03-12 14:30:00,
2013-03-12 10:35:00,36.7,32.4,29.91,SSE,155,2.0,9.0,84,0.00,,,0.48,meteohub,2013-03-12 14:35:00,
2013-03-12 10:41:00,36.5,31.8,29.92,WSW,248,1.0,9.0,83,0.00,,,0.48,meteohub,2013-03-12 14:41:00,
2013-03-12 10:47:00,36.3,31.6,29.92,SSW,196,4.0,5.0,83,0.00,,,0.48,meteohub,2013-03-12 14:47:00,
2013-03-12 10:52:00,36.3,31.6,29.92,West,271,2.0,5.0,83,0.00,,,0.48,meteohub,2013-03-12 14:52:00,
2013-03-12 10:57:00,36.1,31.8,29.92,West,259,0.0,10.0,84,0.00,,,0.48,meteohub,2013-03-12 14:57:00,
2013-03-12 11:02:00,36.1,31.8,29.92,NW,312,2.0,10.0,84,0.00,,,0.48,meteohub,2013-03-12 15:02:00,
2013-03-12 11:08:00,36.1,31.8,29.92,West,262,0.0,10.0,84,0.00,,,0.48,meteohub,2013-03-12 15:08:00,
2013-03-12 11:14:00,36.0,31.6,29.93,West,277,1.0,9.0,84,0.00,,,0.48,meteohub,2013-03-12 15:14:00,
2013-03-12 11:19:00,35.8,31.6,29.93,NW,305,2.0,9.0,85,0.00,,,0.48,meteohub,2013-03-12 15:19:00,
2013-03-12 11:25:00,35.6,31.5,29.92,West,265,1.0,10.0,85,0.00,,,0.48,meteohub,2013-03-12 15:25:00,
2013-03-12 11:30:00,35.6,31.5,29.93,SSW,196,2.0,10.0,85,0.00,,,0.48,meteohub,2013-03-12 15:30:00,
2013-03-12 11:35:00,35.6,31.3,29.92,WSW,244,0.0,8.0,84,0.00,,,0.48,meteohub,2013-03-12 15:35:00,
2013-03-12 11:41:00,35.8,31.1,29.93,WSW,248,2.0,6.0,83,0.00,,,0.48,meteohub,2013-03-12 15:41:00,
2013-03-12 11:46:00,36.1,31.5,29.92,NW,304,0.0,6.0,83,0.00,,,0.48,meteohub,2013-03-12 15:46:00,
2013-03-12 11:52:00,36.5,31.8,29.92,SSE,166,1.0,4.0,83,0.00,,,0.48,meteohub,2013-03-12 15:52:00,
2013-03-12 11:57:00,36.7,31.5,29.92,NW,316,3.0,5.0,81,0.00,,,0.48,meteohub,2013-03-12 15:57:00,
2013-03-12 12:02:00,36.7,31.5,29.92,West,267,0.0,8.0,81,0.00,,,0.48,meteohub,2013-03-12 16:02:00,
2013-03-12 12:07:00,36.7,31.1,29.92,NNW,340,0.0,8.0,80,0.00,,,0.48,meteohub,2013-03-12 16:07:00,
2013-03-12 12:12:00,36.7,30.7,29.92,West,276,3.0,8.0,79,0.00,,,0.48,meteohub,2013-03-12 16:12:00,
2013-03-12 12:17:00,36.7,30.7,29.92,WNW,290,0.0,8.0,79,0.00,,,0.48,meteohub,2013-03-12 16:17:00,
2013-03-12 12:22:00,36.9,30.4,29.92,West,259,1.0,9.0,77,0.00,,,0.48,meteohub,2013-03-12 16:22:00,
2013-03-12 12:27:00,37.0,30.7,29.92,ENE,57,0.0,9.0,78,0.00,,,0.48,meteohub,2013-03-12 16:27:00,
2013-03-12 12:32:00,37.2,30.7,29.92,WNW,288,3.0,8.0,77,0.00,,,0.48,meteohub,2013-03-12 16:32:00,
2013-03-12 12:37:00,37.6,31.1,29.92,WSW,252,2.0,8.0,77,0.00,,,0.48,meteohub,2013-03-12 16:37:00,
2013-03-12 12:42:00,37.8,30.6,29.92,West,262,2.0,7.0,75,0.00,,,0.48,meteohub,2013-03-12 16:42:00,
2013-03-12 12:47:00,37.6,30.0,29.92,West,271,2.0,10.0,74,0.00,,,0.48,meteohub,2013-03-12 16:47:00,
2013-03-12 12:53:00,37.6,30.4,29.92,ENE,67,1.0,10.0,75,0.00,,,0.48,meteohub,2013-03-12 16:53:00,
2013-03-12 12:58:00,37.2,29.7,29.92,SSE,163,8.0,10.0,74,0.00,,,0.48,meteohub,2013-03-12 16:58:00,
2013-03-12 13:03:00,37.0,30.2,29.92,WNW,284,0.0,13.0,76,0.00,,,0.48,meteohub,2013-03-12 17:03:00,
2013-03-12 13:08:00,37.0,30.2,29.93,SSW,207,0.0,13.0,76,0.00,,,0.48,meteohub,2013-03-12 17:08:00,
2013-03-12 13:13:00,37.0,30.6,29.93,WSW,254,5.0,13.0,77,0.00,,,0.48,meteohub,2013-03-12 17:13:00,
2013-03-12 13:18:00,37.0,30.6,29.93,WSW,254,0.0,6.0,77,0.00,,,0.48,meteohub,2013-03-12 17:18:00,
2013-03-12 13:23:00,37.2,30.4,29.93,SSE,152,2.0,6.0,76,0.00,,,0.48,meteohub,2013-03-12 17:23:00,
2013-03-12 13:29:00,37.0,29.8,29.93,SW,217,4.0,6.0,75,0.00,,,0.48,meteohub,2013-03-12 17:29:00,
2013-03-12 13:34:00,37.0,30.6,29.93,West,275,5.0,5.0,77,0.00,,,0.48,meteohub,2013-03-12 17:34:00,
2013-03-12 13:39:00,36.9,30.0,29.93,WSW,254,0.0,5.0,76,0.00,,,0.48,meteohub,2013-03-12 17:39:00,
2013-03-12 13:44:00,36.9,30.4,29.93,SSW,213,1.0,6.0,77,0.00,,,0.48,meteohub,2013-03-12 17:44:00,
2013-03-12 13:49:00,36.9,30.6,29.92,SW,236,2.0,6.0,78,0.00,,,0.48,meteohub,2013-03-12 17:49:00,
2013-03-12 13:54:00,36.9,30.6,29.92,WSW,250,2.0,5.0,78,0.00,,,0.48,meteohub,2013-03-12 17:54:00,
2013-03-12 14:00:00,36.9,30.9,29.92,SW,217,1.0,7.0,79,0.00,,,0.48,meteohub,2013-03-12 18:00:00,
2013-03-12 14:05:00,36.9,30.9,29.92,WNW,300,3.0,7.0,79,0.00,,,0.48,meteohub,2013-03-12 18:05:00,
2013-03-12 14:10:00,36.9,30.9,29.92,SW,214,0.0,5.0,79,0.00,,,0.48,meteohub,2013-03-12 18:10:00,
2013-03-12 14:16:00,37.2,30.9,29.92,West,274,3.0,8.0,78,0.00,,,0.48,meteohub,2013-03-12 18:16:00,
2013-03-12 14:21:00,37.6,30.7,29.92,South,188,2.0,8.0,76,0.00,,,0.48,meteohub,2013-03-12 18:21:00,
2013-03-12 14:26:00,37.6,31.3,29.92,WNW,284,3.0,8.0,78,0.00,,,0.48,meteohub,2013-03-12 18:26:00,
2013-03-12 14:32:00,37.6,30.7,29.92,South,190,2.0,7.0,76,0.00,,,0.48,meteohub,2013-03-12 18:32:00,
2013-03-12 14:37:00,37.6,30.7,29.92,NW,313,3.0,6.0,76,0.00,,,0.48,meteohub,2013-03-12 18:37:00,
2013-03-12 14:42:00,37.6,30.7,29.92,WNW,296,1.0,5.0,76,0.00,,,0.48,meteohub,2013-03-12 18:42:00,
2013-03-12 14:47:00,37.2,30.4,29.92,SW,227,5.0,9.0,76,0.00,,,0.48,meteohub,2013-03-12 18:47:00,
2013-03-12 14:52:00,37.2,30.7,29.92,SSW,213,0.0,9.0,77,0.00,,,0.48,meteohub,2013-03-12 18:52:00,
2013-03-12 14:57:00,37.4,30.9,29.93,WSW,249,2.0,9.0,77,0.00,,,0.48,meteohub,2013-03-12 18:57:00,
2013-03-12 15:02:00,37.4,30.9,29.93,West,260,1.0,7.0,77,0.00,,,0.48,meteohub,2013-03-12 19:02:00,
2013-03-12 15:07:00,37.4,30.9,29.92,West,272,0.0,5.0,77,0.00,,,0.48,meteohub,2013-03-12 19:07:00,
2013-03-12 15:12:00,37.4,30.9,29.93,WNW,282,1.0,4.0,77,0.00,,,0.48,meteohub,2013-03-12 19:12:00,
2013-03-12 15:17:00,37.2,30.9,29.93,WNW,290,0.0,5.0,78,0.00,,,0.48,meteohub,2013-03-12 19:17:00,
2013-03-12 15:22:00,37.0,31.5,29.93,WNW,290,0.0,5.0,80,0.00,,,0.48,meteohub,2013-03-12 19:22:00,
2013-03-12 15:28:00,37.0,31.5,29.93,NE,44,0.0,5.0,80,0.00,,,0.48,meteohub,2013-03-12 19:28:00,
2013-03-12 15:33:00,37.0,31.5,29.93,SW,227,0.0,5.0,80,0.00,,,0.48,meteohub,2013-03-12 19:33:00,
2013-03-12 15:38:00,37.0,31.1,29.93,SSE,168,1.0,5.0,79,0.00,,,0.48,meteohub,2013-03-12 19:38:00,
2013-03-12 15:43:00,37.0,31.5,29.93,SSW,202,5.0,5.0,80,0.00,,,0.48,meteohub,2013-03-12 19:43:00,
2013-03-12 15:49:00,36.9,30.6,29.93,WSW,253,4.0,8.0,78,0.00,,,0.48,meteohub,2013-03-12 19:49:00,
2013-03-12 15:54:00,36.9,30.6,29.93,SW,215,0.0,9.0,78,0.00,,,0.48,meteohub,2013-03-12 19:54:00,
2013-03-12 15:59:00,36.9,30.6,29.93,WSW,256,1.0,9.0,78,0.00,,,0.48,meteohub,2013-03-12 19:59:00,
2013-03-12 16:05:00,36.9,30.4,29.94,SW,228,3.0,8.0,77,0.00,,,0.48,meteohub,2013-03-12 20:05:00,
2013-03-12 16:10:00,36.9,30.6,29.94,NW,321,0.0,8.0,78,0.00,,,0.48,meteohub,2013-03-12 20:10:00,
2013-03-12 16:15:00,36.9,30.6,29.94,ESE,109,0.0,5.0,78,0.00,,,0.48,meteohub,2013-03-12 20:15:00,
2013-03-12 16:20:00,36.9,30.6,29.94,WNW,294,0.0,5.0,78,0.00,,,0.48,meteohub,2013-03-12 20:20:00,
2013-03-12 16:26:00,36.9,30.9,29.94,SW,230,0.0,7.0,79,0.00,,,0.48,meteohub,2013-03-12 20:26:00,
2013-03-12 16:31:00,36.9,30.9,29.94,SW,230,0.0,7.0,79,0.00,,,0.48,meteohub,2013-03-12 20:31:00,
2013-03-12 16:36:00,36.9,31.3,29.94,SW,234,0.0,7.0,80,0.00,,,0.48,meteohub,2013-03-12 20:36:00,
2013-03-12 16:41:00,36.9,30.9,29.94,West,269,2.0,4.0,79,0.00,,,0.48,meteohub,2013-03-12 20:41:00,
2013-03-12 16:47:00,36.7,30.7,29.94,WNW,291,4.0,5.0,79,0.00,,,0.48,meteohub,2013-03-12 20:47:00,
2013-03-12 16:52:00,36.3,30.4,29.94,WNW,291,0.0,5.0,79,0.00,,,0.48,meteohub,2013-03-12 20:52:00,
2013-03-12 16:57:00,36.1,30.6,29.94,WNW,291,0.0,4.0,80,0.00,,,0.48,meteohub,2013-03-12 20:57:00,
2013-03-12 17:02:00,36.1,30.6,29.95,SW,232,0.0,5.0,80,0.00,,,0.48,meteohub,2013-03-12 21:02:00,
2013-03-12 17:07:00,36.0,30.7,29.94,NNW,329,2.0,5.0,81,0.00,,,0.48,meteohub,2013-03-12 21:07:00,
2013-03-12 17:12:00,36.0,30.7,29.94,NW,307,0.0,5.0,81,0.00,,,0.48,meteohub,2013-03-12 21:12:00,
2013-03-12 17:17:00,36.0,30.7,29.95,NW,323,0.0,3.0,81,0.00,,,0.48,meteohub,2013-03-12 21:17:00,
2013-03-12 17:22:00,36.0,30.7,29.94,NW,318,0.0,3.0,81,0.00,,,0.48,meteohub,2013-03-12 21:22:00,
2013-03-12 17:27:00,36.0,30.9,29.95,NW,319,0.0,3.0,82,0.00,,,0.48,meteohub,2013-03-12 21:27:00,
2013-03-12 17:32:00,35.8,30.7,29.95,NW,309,0.0,3.0,82,0.00,,,0.48,meteohub,2013-03-12 21:32:00,
2013-03-12 17:38:00,35.8,30.7,29.95,NW,309,0.0,4.0,82,0.00,,,0.48,meteohub,2013-03-12 21:38:00,
2013-03-12 17:43:00,35.6,30.7,29.94,WSW,252,5.0,5.0,82,0.00,,,0.48,meteohub,2013-03-12 21:43:00,
2013-03-12 17:49:00,35.4,30.7,29.95,WSW,257,0.0,6.0,83,0.00,,,0.48,meteohub,2013-03-12 21:49:00,
2013-03-12 17:54:00,35.2,30.6,29.95,WSW,257,0.0,6.0,83,0.00,,,0.48,meteohub,2013-03-12 21:54:00,
2013-03-12 17:59:00,35.2,30.6,29.95,WSW,257,0.0,6.0,83,0.00,,,0.48,meteohub,2013-03-12 21:59:00,
2013-03-12 18:04:00,35.1,30.4,29.95,WSW,257,0.0,3.0,83,0.00,,,0.48,meteohub,2013-03-12 22:04:00,
2013-03-12 18:09:00,35.1,30.7,29.96,WSW,252,0.0,3.0,84,0.00,,,0.48,meteohub,2013-03-12 22:09:00,
2013-03-12 18:15:00,35.1,30.7,29.96,WSW,252,0.0,3.0,84,0.00,,,0.48,meteohub,2013-03-12 22:15:00,
2013-03-12 18:20:00,34.9,30.6,29.96,WSW,252,0.0,3.0,84,0.00,,,0.48,meteohub,2013-03-12 22:20:00,
2013-03-12 18:25:00,34.9,30.6,29.96,WSW,252,0.0,3.0,84,0.00,,,0.48,meteohub,2013-03-12 22:25:00,
2013-03-12 18:30:00,35.1,30.9,29.96,South,190,1.0,3.0,85,0.00,,,0.48,meteohub,2013-03-12 22:30:00,
2013-03-12 18:35:00,34.9,30.6,29.96,West,264,0.0,2.0,84,0.00,,,0.48,meteohub,2013-03-12 22:35:00,
2013-03-12 18:40:00,34.9,30.6,29.97,West,264,0.0,4.0,84,0.00,,,0.48,meteohub,2013-03-12 22:40:00,
2013-03-12 18:45:00,34.7,30.4,29.97,West,264,0.0,4.0,84,0.00,,,0.48,meteohub,2013-03-12 22:45:00,
2013-03-12 18:51:00,34.5,30.2,29.97,West,264,2.0,4.0,84,0.00,,,0.48,meteohub,2013-03-12 22:51:00,
2013-03-12 18:56:00,34.3,30.0,29.98,West,264,0.0,1.0,84,0.00,,,0.48,meteohub,2013-03-12 22:56:00,
2013-03-12 19:02:00,34.3,30.4,29.98,SW,227,0.0,3.0,85,0.00,,,0.48,meteohub,2013-03-12 23:02:00,
2013-03-12 19:07:00,34.2,29.8,29.98,SW,227,1.0,3.0,84,0.00,,,0.48,meteohub,2013-03-12 23:07:00,
2013-03-12 19:12:00,34.2,29.8,29.98,SW,227,0.0,3.0,84,0.00,,,0.48,meteohub,2013-03-12 23:12:00,
2013-03-12 19:17:00,34.0,29.7,29.98,SW,227,0.0,2.0,84,0.00,,,0.48,meteohub,2013-03-12 23:17:00,
2013-03-12 19:22:00,34.0,29.7,29.99,SW,232,1.0,2.0,84,0.00,,,0.48,meteohub,2013-03-12 23:22:00,
2013-03-12 19:27:00,34.0,30.0,29.99,NNE,19,0.0,3.0,85,0.00,,,0.48,meteohub,2013-03-12 23:27:00,
2013-03-12 19:32:00,33.8,29.8,29.99,North,0,0.0,3.0,85,0.00,,,0.48,meteohub,2013-03-12 23:32:00,
2013-03-12 19:37:00,33.8,29.8,29.99,WNW,290,1.0,3.0,85,0.00,,,0.48,meteohub,2013-03-12 23:37:00,
2013-03-12 19:43:00,33.6,29.7,29.99,SSW,213,0.0,3.0,85,0.00,,,0.48,meteohub,2013-03-12 23:43:00,
2013-03-12 19:48:00,33.6,29.7,29.99,SW,227,2.0,3.0,85,0.00,,,0.48,meteohub,2013-03-12 23:48:00,
2013-03-12 19:53:00,33.4,29.5,29.99,WSW,240,0.0,2.0,85,0.00,,,0.48,meteohub,2013-03-12 23:53:00,
2013-03-12 19:58:00,33.4,29.1,29.99,SSE,161,0.0,4.0,84,0.00,,,0.48,meteohub,2013-03-12 23:58:00,
2013-03-12 20:03:00,33.4,29.1,29.99,WNW,297,0.0,6.0,84,0.00,,,0.48,meteohub,2013-03-13 00:03:00,
2013-03-12 20:08:00,33.4,29.1,29.99,WNW,297,0.0,6.0,84,0.00,,,0.00,meteohub,2013-03-13 00:08:00,
2013-03-12 20:13:00,33.4,29.1,29.99,WNW,297,0.0,6.0,84,0.00,,,0.00,meteohub,2013-03-13 00:13:00,
2013-03-12 20:19:00,33.4,29.5,30.00,WNW,297,0.0,3.0,85,0.00,,,0.00,meteohub,2013-03-13 00:19:00,
2013-03-12 20:24:00,33.3,29.3,29.99,WNW,297,0.0,2.0,85,0.00,,,0.00,meteohub,2013-03-13 00:24:00,
2013-03-12 20:29:00,33.3,29.3,30.00,WNW,297,0.0,2.0,85,0.00,,,0.00,meteohub,2013-03-13 00:29:00,
2013-03-12 20:35:00,33.3,29.3,30.00,WNW,297,0.0,2.0,85,0.00,,,0.00,meteohub,2013-03-13 00:35:00,
2013-03-12 20:40:00,33.3,28.9,30.00,WNW,297,0.0,2.0,84,0.00,,,0.00,meteohub,2013-03-13 00:40:00,
2013-03-12 20:45:00,33.3,28.9,30.00,WNW,297,1.0,3.0,84,0.00,,,0.00,meteohub,2013-03-13 00:45:00,
2013-03-12 20:51:00,33.3,28.9,30.00,WNW,297,0.0,3.0,84,0.00,,,0.00,meteohub,2013-03-13 00:51:00,
2013-03-12 20:56:00,33.3,28.9,30.00,WNW,297,0.0,2.0,84,0.00,,,0.00,meteohub,2013-03-13 00:56:00,
2013-03-12 21:02:00,33.4,29.5,30.00,WNW,297,0.0,1.0,85,0.00,,,0.00,meteohub,2013-03-13 01:02:00,
2013-03-12 21:07:00,33.4,29.5,30.01,WSW,242,0.0,4.0,85,0.00,,,0.00,meteohub,2013-03-13 01:07:00,
2013-03-12 21:12:00,33.4,29.1,30.01,SE,134,0.0,5.0,84,0.00,,,0.00,meteohub,2013-03-13 01:12:00,
2013-03-12 21:17:00,33.4,29.1,30.01,WSW,251,8.0,8.0,84,0.00,,,0.00,meteohub,2013-03-13 01:17:00,
2013-03-12 21:22:00,33.4,28.6,30.01,NE,53,3.0,9.0,82,0.00,,,0.00,meteohub,2013-03-13 01:22:00,
2013-03-12 21:27:00,33.4,28.2,30.01,WNW,286,6.0,9.0,81,0.00,,,0.00,meteohub,2013-03-13 01:27:00,
2013-03-12 21:32:00,33.4,27.7,30.01,SW,226,2.0,9.0,79,0.00,,,0.00,meteohub,2013-03-13 01:32:00,
2013-03-12 21:37:00,33.4,27.0,30.02,WNW,294,2.0,8.0,77,0.00,,,0.00,meteohub,2013-03-13 01:37:00,
2013-03-12 21:42:00,33.4,27.0,30.02,NW,315,4.0,9.0,77,0.00,,,0.00,meteohub,2013-03-13 01:42:00,
2013-03-12 21:47:00,33.4,27.3,30.02,WNW,290,2.0,9.0,78,0.00,,,0.00,meteohub,2013-03-13 01:47:00,
2013-03-12 21:53:00,33.3,26.2,30.02,NE,43,2.0,8.0,75,0.00,,,0.00,meteohub,2013-03-13 01:53:00,
2013-03-12 21:58:00,33.3,26.6,30.02,South,191,4.0,10.0,76,0.00,,,0.00,meteohub,2013-03-13 01:58:00,
2013-03-12 22:03:00,33.3,26.2,30.02,SW,232,0.0,10.0,75,0.00,,,0.00,meteohub,2013-03-13 02:03:00,
2013-03-12 22:08:00,33.3,26.2,30.02,WNW,282,1.0,10.0,75,0.00,,,0.00,meteohub,2013-03-13 02:08:00,
2013-03-12 22:14:00,33.3,26.2,30.02,SW,215,0.0,9.0,75,0.00,,,0.00,meteohub,2013-03-13 02:14:00,
2013-03-12 22:19:00,33.3,26.6,30.02,NW,308,0.0,9.0,76,0.00,,,0.00,meteohub,2013-03-13 02:19:00,
2013-03-12 22:24:00,33.1,26.1,30.02,SW,234,1.0,5.0,75,0.00,,,0.00,meteohub,2013-03-13 02:24:00,
2013-03-12 22:29:00,33.1,25.7,30.02,South,180,1.0,5.0,74,0.00,,,0.00,meteohub,2013-03-13 02:29:00,
2013-03-12 22:35:00,33.3,26.2,30.01,SSW,197,1.0,4.0,75,0.00,,,0.00,meteohub,2013-03-13 02:35:00,
2013-03-12 22:40:00,33.1,26.4,30.01,SSW,197,0.0,4.0,76,0.00,,,0.00,meteohub,2013-03-13 02:40:00,
2013-03-12 22:45:00,33.1,26.1,30.01,SSW,197,0.0,4.0,75,0.00,,,0.00,meteohub,2013-03-13 02:45:00,
2013-03-12 22:51:00,33.1,26.1,30.01,SSW,197,0.0,4.0,75,0.00,,,0.00,meteohub,2013-03-13 02:51:00,
2013-03-12 22:56:00,33.1,26.1,30.01,SSW,197,0.0,3.0,75,0.00,,,0.00,meteohub,2013-03-13 02:56:00,
2013-03-12 23:01:00,33.1,26.1,30.01,SSW,197,1.0,4.0,75,0.00,,,0.00,meteohub,2013-03-13 03:01:00,
2013-03-12 23:06:00,33.1,25.7,30.01,SSW,197,0.0,4.0,74,0.00,,,0.00,meteohub,2013-03-13 03:06:00,
2013-03-12 23:12:00,33.1,25.7,30.01,SSW,197,0.0,4.0,74,0.00,,,0.00,meteohub,2013-03-13 03:12:00,
2013-03-12 23:17:00,33.1,26.1,30.01,SSW,197,0.0,4.0,75,0.00,,,0.00,meteohub,2013-03-13 03:17:00,
2013-03-12 23:22:00,33.1,26.4,30.01,SSW,197,0.0,3.0,76,0.00,,,0.00,meteohub,2013-03-13 03:22:00,
2013-03-12 23:27:00,33.1,26.1,30.01,SSW,197,0.0,3.0,75,0.00,,,0.00,meteohub,2013-03-13 03:27:00,
2013-03-12 23:32:00,33.1,26.1,30.01,SSW,192,2.0,3.0,75,0.00,,,0.00,meteohub,2013-03-13 03:32:00,
2013-03-12 23:36:00,33.1,26.4,30.01,SSW,202,1.0,3.0,76,0.00,,,0.00,meteohub,2013-03-13 03:36:00,
2013-03-12 23:37:00,33.1,26.4,30.01,SSW,202,0.0,6.0,76,0.00,,,0.00,meteohub,2013-03-13 03:37:00,
2013-03-12 23:47:00,33.1,26.4,30.01,SSW,202,0.0,6.0,76,0.00,,,0.00,meteohub,2013-03-13 03:47:00,
2013-03-12 23:52:00,33.1,26.6,30.01,SSW,202,0.0,3.0,77,0.00,,,0.00,meteohub,2013-03-13 03:52:00,
2013-03-12 23:57:00,33.1,26.6,30.01,SSW,207,3.0,3.0,77,0.00,,,0.00,meteohub,2013-03-13 03:57:00,